Wind_Speed
61 69 72 72 72 74 74 74 74 74 77 81 83 84 81 77 75 75 74 72 72 74 67 62 62 61 59 58 58 57 59 58 59 59 58 57 56 55 53 51 52 52 52 51
53 61 63 68 70 72 74 75 74 70 71 78 83 87 79 79 77 75 76 75 72 72 74 68 65 66 64 62 60 60 60 61 59 59 59 60 57 56 57 56 56 55 53 52
45 52 53 58 65 68 71 74 73 72 70 74 78 86 85 82 77 71 74 74 75 72 71 71 68 68 69 67 64 61 60 59 59 58 60 60 59 60 60 59 54 52 54 55
36 34 43 44 55 58 68 64 66 68 69 76 74 85 83 82 80 73 69 71 73 75 74 69 73 69 69 70 69 66 64 62 61 61 60 60 58 58 57 55 56 57 59 58
15 14 19 31 33 28 57 60 65 67 69 63 73 78 81 81 82 74 70 67 70 72 73 72 70 70 72 71 75 71 68 64 62 62 61 60 60 59 57 58 59 58 58 59
13 3 5 5 12 22 30 47 61 68 70 74 71 53 74 72 71 72 70 67 65 67 70 71 73 72 69 70 74 76 73 69 65 64 63 61 60 60 60 59 58 59 59 59
14 6 10 13 14 19 25 32 47 63 75 79 69 67 68 67 61 59 61 63 64 63 67 68 68 70 72 70 72 72 71 71 69 66 64 62 61 61 60 58 60 61 61 60
16 5 13 11 15 25 23 30 36 54 66 68 66 73 74 61 57 58 56 56 57 61 65 67 70 69 72 74 74 72 72 67 72 70 68 65 65 64 60 60 62 62 62 61
12 8 13 16 13 15 25 31 29 39 49 34 37 42 59 60 56 54 55 51 53 57 59 62 67 71 68 69 72 73 70 68 69 62 71 68 69 66 64 63 64 64 63 63
17 9 11 13 12 15 10 20 21 34 33 41 19 13 14 25 32 31 37 41 40 43 49 56 61 65 68 69 69 71 72 70 68 72 64 67 69 70 69 68 67 66 66 66
20 18 16 13 14 10 14 6 14 38 31 37 43 5 12 23 30 27 30 34 36 41 46 49 54 58 63 65 68 69 71 71 71 67 69 70 63 64 69 73 73 70 69 69
20 21 19 12 9 6 9 6 11 30 41 24 32 34 22 14 22 26 30 33 29 32 40 43 46 51 54 59 64 68 69 68 70 69 65 67 72 68 64 73 76 73 72 71
15 15 16 5 9 12 11 13 13 13 19 33 32 31 26 23 21 26 29 36 34 32 27 33 39 41 43 46 55 61 62 68 65 67 65 61 63 68 73 61 66 73 75 75
14 13 15 12 18 16 6 7 15 13 11 11 15 28 32 33 29 27 18 19 26 28 24 22 21 26 37 47 48 53 56 59 64 63 63 64 63 61 63 68 65 59 68 73
15 6 13 7 13 15 9 5 12 19 10 10 12 13 16 25 28 24 25 23 24 26 27 26 25 27 29 28 41 52 52 58 59 62 62 62 62 61 62 65 62 66 67 60
15 8 11 4 11 10 2 7 11 10 9 10 12 13 15 15 17 21 29 33 35 36 36 36 35 39 35 34 36 40 50 55 58 62 63 63 65 65 66 67 66 65 66 68
14 6 10 7 10 4 8 16 12 10 14 11 7 8 14 16 18 21 22 24 26 27 28 30 31 35 34 31 33 42 43 46 51 59 62 63 64 66 66 66 69 68 67 67
10 6 3 3 5 3 10 13 12 9 8 5 5 12 12 11 11 14 18 23 27 26 28 29 28 32 30 33 36 32 43 39 40 43 49 61 64 64 65 68 68 68 71 72
7 8 5 5 6 5 8 9 9 6 6 5 7 2 5 8 11 12 9 10 14 17 22 23 27 30 37 32 30 38 32 29 41 26 42 48 47 52 59 67 66 66 68 68
3 3 6 7 7 3 1 4 5 9 8 9 8 8 9 10 11 11 7 7 7 10 14 16 20 28 37 34 29 32 30 29 28 28 30 34 34 49 51 53 52 56 57 55
3 5 4 7 7 8 9 8 8 10 13 15 15 14 12 12 16 16 14 15 14 11 11 13 14 18 24 33 35 36 38 33 32 34 35 32 40 33 31 37 47 52 55 54
9 5 4 7 11 14 14 14 14 14 16 17 17 18 17 16 18 17 19 16 17 18 17 14 15 16 16 21 28 35 37 37 36 37 35 37 36 38 37 38 37 31 28 35
8 7 6 4 5 7 12 12 11 13 16 18 18 17 17 19 21 19 17 16 15 16 18 18 15 15 17 18 21 24 26 31 35 34 37 37 40 39 40 39 37 30 30 35
7 6 5 4 5 5 6 7 7 9 11 14 17 18 17 19 19 19 19 20 19 19 19 19 19 19 18 18 19 19 25 27 27 31 33 32 34 35 36 36 38 36 35 37
10 8 8 8 8 9 9 9 9 11 12 14 16 16 15 17 17 20 20 21 21 22 21 20 21 22 21 20 20 22 23 25 29 30 32 34 36 38 37 38 38 39 40 40
11 10 10 11 11 12 14 15 16 17 17 18 19 19 18 19 20 20 20 22 22 22 23 24 24 23 24 24 23 23 25 27 28 29 31 32 34 36 38 39 40 40 40 42
Wind_Direction
250 252 249 245 241 243 245 245 245 243 243 244 243 245 244 244 240 239 237 235 236 237 237 235 233 231 229 232 233 234 238 240 240 239 239 239 242 243 241 241 241 241 242 243
254 246 246 248 245 242 239 241 243 242 241 244 244 243 243 245 241 238 238 236 234 235 238 234 234 234 232 232 233 233 235 238 239 241 242 241 240 240 241 240 240 242 245 247
273 253 247 244 245 243 240 240 240 244 243 242 244 243 242 243 244 241 239 237 235 234 237 238 234 235 235 232 233 235 235 237 239 240 240 242 242 241 242 243 245 247 247 246
288 276 264 253 245 244 242 238 239 238 239 242 243 247 243 241 243 242 241 239 237 235 236 236 239 235 236 237 235 233 233 235 236 238 239 240 241 242 242 242 240 240 242 243
341 282 257 257 264 260 245 237 235 235 236 237 242 245 243 242 241 240 241 243 241 239 238 238 238 242 238 235 238 236 233 231 234 237 239 240 240 240 240 240 242 243 244 246
352 290 279 280 245 254 255 241 233 231 233 237 237 249 244 244 244 245 242 242 245 245 243 240 239 239 240 244 243 240 237 233 232 235 237 237 239 240 241 241 241 242 244 245
339 327 296 297 283 269 249 244 236 232 229 234 233 241 244 244 246 247 245 242 240 242 242 242 242 242 241 239 241 246 242 237 235 234 235 236 237 239 239 240 241 242 242 244
339 244 299 290 304 273 259 250 242 235 233 236 235 239 243 246 247 246 245 243 240 240 240 240 240 240 239 238 240 241 247 242 240 237 236 235 235 236 238 239 241 242 243 243
305 317 337 316 297 291 275 249 243 230 230 230 252 257 251 244 246 248 247 247 243 240 239 238 238 239 241 241 241 243 243 246 245 244 237 238 237 236 236 238 240 242 244 245
332 314 333 348 299 317 320 248 224 209 219 210 218 266 257 233 239 239 241 243 245 243 238 237 237 237 238 240 240 240 241 242 242 247 243 242 241 240 238 238 239 241 243 244
318 315 336 347 25 301 282 224 258 212 204 208 220 261 247 244 247 244 244 241 236 245 245 242 239 237 237 238 239 239 239 240 241 241 247 245 239 243 243 239 240 241 243 246
308 308 318 341 29 57 236 215 228 211 212 221 221 229 244 238 228 233 233 231 232 231 229 232 237 238 239 239 238 237 237 238 239 240 240 243 250 243 240 242 240 240 241 243
333 322 336 290 352 31 219 217 221 233 211 230 236 240 239 238 238 252 253 251 246 246 244 238 230 233 235 236 237 236 236 235 236 238 239 238 238 248 249 243 245 242 243 243
335 335 322 13 8 3 66 206 203 212 188 202 220 230 230 244 240 240 229 232 232 229 231 230 235 240 244 238 236 235 232 232 233 234 236 237 238 240 245 253 250 243 242 244
327 324 295 343 358 12 52 143 185 185 185 215 217 242 252 247 243 261 254 246 251 259 251 242 243 253 259 262 246 237 234 231 231 234 232 233 235 236 238 241 248 251 251 248
312 325 282 327 340 359 84 161 165 195 219 233 237 232 227 227 239 252 256 256 262 265 262 254 256 267 273 268 262 244 239 236 234 234 233 233 234 235 237 239 242 245 249 256
284 279 296 303 347 36 83 121 143 184 200 211 231 234 243 261 260 251 254 257 258 256 249 246 247 257 261 261 251 246 241 242 240 238 237 236 235 235 237 240 241 244 248 251
239 237 229 300 356 54 66 68 71 84 103 147 164 217 237 263 274 283 269 260 254 256 250 252 247 239 241 243 248 252 241 244 243 246 244 241 238 238 239 241 243 244 246 249
217 207 204 253 347 41 63 64 57 47 25 7 7 341 265 274 277 290 256 254 251 248 248 249 248 245 233 240 246 241 249 246 244 242 237 244 244 243 243 244 245 246 248 251
352 239 224 242 280 290 316 23 1 353 340 332 328 327 316 306 296 291 299 288 273 263 257 247 251 244 237 237 244 248 233 234 244 234 231 242 235 239 244 243 242 245 250 252
347 317 299 256 253 273 280 281 295 303 314 318 310 307 297 291 294 295 293 287 290 283 278 264 259 253 240 242 245 244 239 248 240 235 232 244 246 246 231 239 233 234 235 238
17 1 321 281 277 274 274 282 288 294 300 300 297 293 292 289 282 281 287 288 287 289 289 281 266 265 256 246 246 248 245 238 243 241 235 234 230 238 240 237 237 229 237 247
2 4 9 352 304 271 275 282 289 296 300 298 289 287 289 289 286 286 279 281 285 284 282 286 283 269 263 261 250 245 245 243 240 239 237 232 233 232 234 238 242 240 236 238
319 332 327 333 310 295 292 300 310 299 301 295 291 288 285 284 281 283 283 281 284 282 278 275 276 278 265 257 258 257 246 239 238 238 238 234 235 237 239 237 240 242 242 244
287 289 291 306 320 327 333 333 329 324 323 310 303 301 305 291 292 285 282 280 278 279 279 277 273 272 271 266 258 254 254 252 246 237 235 236 238 237 237 241 244 245 245 247
272 273 281 290 299 306 313 320 324 321 315 308 309 307 300 294 290 290 289 284 280 275 272 273 272 270 271 271 267 261 255 253 252 250 247 244 242 241 242 243 247 248 249 251
Height
5439 5442 5450 5458 5457 5465 5475 5479 5489 5503 5517 5522 5527 5533 5548 5554 5566 5577 5587 5596 5605 5613 5623 5628 5632 5637 5643 5649 5654 5660 5665 5671 5675 5681 5686 5691 5698 5705 5708 5712 5716 5718 5720 5724
5418 5423 5429 5430 5438 5445 5454 5461 5470 5489 5499 5503 5512 5514 5526 5528 5545 5557 5567 5579 5589 5598 5604 5610 5617 5623 5630 5635 5641 5646 5652 5657 5664 5669 5674 5678 5684 5690 5695 5698 5702 5706 5711 5717
5399 5405 5411 5414 5419 5427 5437 5445 5460 5469 5483 5486 5489 5489 5502 5512 5524 5541 5549 5563 5573 5583 5591 5597 5600 5609 5615 5621 5628 5634 5639 5644 5650 5656 5660 5666 5671 5676 5681 5688 5695 5700 5702 5703
5389 5398 5396 5401 5404 5411 5415 5438 5446 5453 5461 5461 5475 5464 5481 5496 5508 5519 5535 5546 5558 5566 5573 5581 5586 5593 5600 5608 5611 5617 5622 5628 5634 5638 5646 5652 5660 5665 5671 5675 5677 5680 5684 5688
5386 5385 5385 5389 5400 5402 5408 5422 5425 5437 5442 5446 5450 5449 5465 5480 5488 5505 5525 5532 5542 5552 5561 5569 5574 5577 5583 5588 5592 5599 5606 5613 5621 5626 5632 5638 5644 5650 5656 5660 5664 5668 5673 5677
5382 5382 5383 5390 5393 5396 5402 5399 5410 5417 5423 5419 5436 5441 5449 5462 5483 5497 5511 5522 5531 5539 5544 5549 5556 5562 5566 5572 5576 5583 5592 5601 5606 5612 5618 5625 5631 5637 5642 5647 5652 5656 5660 5664
5384 5383 5384 5386 5388 5390 5390 5391 5396 5399 5399 5402 5434 5429 5434 5455 5471 5489 5498 5506 5512 5518 5524 5531 5539 5544 5550 5554 5558 5566 5575 5586 5593 5599 5605 5611 5617 5622 5628 5633 5637 5641 5646 5651
5382 5383 5383 5383 5384 5382 5382 5383 5387 5389 5394 5407 5424 5411 5428 5456 5461 5466 5476 5486 5496 5500 5506 5511 5516 5521 5527 5534 5541 5550 5560 5569 5579 5585 5591 5596 5601 5607 5613 5619 5623 5627 5632 5637
5381 5382 5381 5379 5376 5375 5372 5372 5382 5384 5394 5409 5414 5421 5428 5440 5448 5455 5464 5471 5474 5479 5486 5491 5497 5504 5512 5520 5531 5537 5546 5554 5562 5570 5576 5582 5588 5593 5599 5604 5608 5612 5617 5622
5383 5378 5379 5376 5373 5371 5367 5369 5373 5379 5391 5402 5407 5413 5420 5426 5435 5440 5445 5451 5456 5462 5469 5474 5480 5487 5495 5503 5513 5521 5529 5538 5546 5553 5560 5567 5574 5579 5584 5589 5593 5598 5602 5606
5382 5380 5380 5375 5372 5368 5367 5367 5372 5377 5382 5393 5402 5410 5414 5420 5425 5431 5437 5441 5445 5450 5456 5462 5468 5474 5481 5488 5496 5503 5512 5520 5529 5537 5545 5551 5558 5565 5570 5573 5577 5583 5587 5592
5382 5378 5377 5373 5372 5369 5366 5369 5373 5377 5384 5390 5398 5408 5412 5415 5419 5423 5429 5434 5437 5441 5446 5451 5457 5462 5468 5474 5480 5487 5495 5503 5511 5519 5527 5534 5541 5546 5551 5556 5562 5567 5572 5577
5381 5378 5375 5374 5373 5369 5367 5369 5374 5380 5384 5391 5399 5405 5409 5413 5416 5419 5424 5427 5431 5435 5439 5443 5446 5451 5455 5460 5465 5472 5479 5487 5494 5501 5510 5518 5524 5530 5535 5542 5547 5552 5558 5563
5380 5379 5377 5375 5373 5370 5368 5370 5374 5379 5385 5390 5394 5399 5404 5408 5410 5413 5417 5419 5423 5427 5432 5436 5439 5443 5447 5450 5454 5459 5465 5472 5479 5486 5493 5501 5509 5515 5520 5525 5530 5536 5541 5546
5380 5379 5377 5376 5375 5373 5371 5372 5374 5379 5383 5388 5391 5395 5398 5401 5404 5406 5411 5414 5418 5421 5425 5429 5432 5435 5438 5441 5443 5448 5453 5459 5465 5471 5478 5486 5492 5498 5505 5510 5514 5519 5523 5528
5379 5378 5376 5377 5376 5376 5374 5374 5376 5379 5381 5385 5386 5390 5393 5395 5398 5401 5404 5407 5410 5413 5416 5418 5422 5426 5428 5430 5432 5435 5440 5445 5451 5457 5463 5470 5477 5483 5489 5494 5498 5503 5508 5512
5376 5376 5377 5377 5376 5376 5377 5375 5376 5378 5379 5383 5384 5386 5389 5392 5393 5395 5397 5399 5401 5403 5406 5408 5410 5414 5417 5420 5421 5423 5428 5432 5437 5442 5448 5454 5461 5466 5472 5478 5483 5488 5492 5497
5373 5374 5376 5377 5377 5377 5375 5375 5376 5378 5379 5381 5382 5384 5386 5388 5389 5389 5390 5392 5393 5395 5397 5399 5400 5403 5406 5409 5411 5413 5417 5422 5426 5429 5433 5439 5445 5451 5456 5461 5467 5472 5477 5481
5372 5373 5375 5376 5377 5378 5377 5378 5378 5379 5380 5380 5381 5382 5383 5384 5385 5386 5386 5386 5387 5387 5388 5389 5391 5393 5397 5400 5403 5406 5409 5413 5416 5419 5421 5425 5430 5435 5440 5445 5451 5456 5461 5466
5374 5374 5376 5376 5377 5377 5378 5378 5378 5379 5380 5380 5381 5381 5382 5381 5382 5383 5382 5382 5382 5382 5383 5383 5383 5384 5387 5390 5393 5395 5400 5402 5406 5409 5412 5415 5418 5421 5425 5430 5434 5440 5444 5449
5376 5376 5376 5375 5376 5377 5376 5377 5377 5378 5381 5377 5378 5379 5378 5379 5380 5379 5379 5378 5378 5378 5378 5378 5378 5378 5379 5381 5384 5387 5390 5393 5396 5399 5401 5404 5407 5409 5411 5415 5419 5423 5428 5434
5378 5376 5375 5374 5374 5375 5374 5375 5375 5375 5373 5374 5374 5375 5375 5374 5376 5375 5374 5374 5373 5372 5372 5373 5373 5373 5373 5374 5375 5377 5379 5383 5386 5389 5392 5394 5396 5400 5402 5406 5409 5409 5412 5418
5379 5377 5375 5375 5373 5372 5372 5371 5370 5370 5368 5368 5369 5370 5369 5370 5371 5370 5370 5369 5368 5368 5367 5366 5367 5367 5368 5368 5369 5370 5371 5373 5376 5379 5381 5383 5386 5388 5392 5395 5398 5400 5402 5408
5378 5376 5375 5374 5373 5371 5370 5370 5368 5367 5366 5366 5366 5365 5365 5365 5365 5364 5363 5363 5363 5363 5363 5362 5361 5361 5362 5362 5362 5363 5364 5366 5368 5370 5372 5373 5375 5378 5381 5383 5387 5389 5392 5396
5375 5374 5373 5372 5371 5370 5369 5368 5367 5366 5364 5364 5363 5361 5358 5359 5357 5358 5357 5356 5357 5356 5356 5356 5356 5355 5355 5355 5355 5356 5357 5358 5359 5361 5363 5365 5367 5369 5371 5374 5376 5379 5381 5384
5370 5370 5370 5369 5368 5367 5366 5364 5363 5362 5360 5360 5358 5356 5355 5354 5353 5351 5350 5350 5349 5348 5348 5348 5348 5348 5348 5347 5347 5348 5349 5350 5350 5351 5353 5354 5356 5358 5361 5363 5365 5366 5368 5370